This is the latest recevied weather packets stored in our database for station/object R2AKT-13. If no packets are shown the sender has not sent any weather packets the latest 10 day(s).
| Time | Temp. | Humidity | Pressure | Rain* | Wind** | Luminosity | Snow |
|---|---|---|---|---|---|---|---|
| 1788096101 | 20° C | 52% | 995.1 hPa | - | 1.79 m/s, 207° | - | - |
| 1788095551 | 20.56° C | 51% | 995.3 hPa | - | 2.68 m/s, 191° | - | - |
| 1788095006 | 20.56° C | 50% | 995.1 hPa | - | 3.13 m/s, 203° | - | - |
| 1788094411 | 20.56° C | 48% | 995.2 hPa | - | 3.58 m/s, 184° | - | - |
| 1788093836 | 20.56° C | 49% | 995.2 hPa | - | 3.13 m/s, 189° | - | - |
| 1788093299 | 20.56° C | 50% | 995.3 hPa | - | 1.79 m/s, 180° | - | - |
| 1788092746 | 21.11° C | 50% | 995.3 hPa | - | 3.58 m/s, 180° | - | - |
| 1788092246 | 21.11° C | 50% | 995.4 hPa | - | 3.13 m/s, 174° | - | - |
| 1788091646 | 21.11° C | 50% | 995.5 hPa | - | 2.24 m/s, 176° | - | - |
| 1788091051 | 21.11° C | 49% | 995.6 hPa | - | 2.24 m/s, 185° | - | - |
| 1788090516 | 21.11° C | 49% | 995.6 hPa | - | 4.47 m/s, 190° | - | - |
| 1788090006 | 21.11° C | 49% | 995.5 hPa | - | 2.68 m/s, 179° | - | - |
| 1788089416 | 20.56° C | 49% | 995.7 hPa | - | 2.24 m/s, 184° | - | - |
| 1788088846 | 21.11° C | 48% | 995.8 hPa | - | 4.02 m/s, 183° | - | - |
| 1788088361 | 21.11° C | 47% | 995.9 hPa | - | 2.24 m/s, 180° | - | - |
| 1788087851 | 21.11° C | 47% | 995.8 hPa | - | 4.47 m/s, 185° | - | - |
| 1788087321 | 21.11° C | 45% | 995.7 hPa | - | 4.02 m/s, 173° | - | - |
| 1788086731 | 21.11° C | 45% | 995.9 hPa | - | 2.24 m/s, 190° | - | - |
| 1788086246 | 21.67° C | 44% | 996 hPa | - | 3.13 m/s, 199° | - | - |
| 1788085711 | 21.67° C | 44% | 996.1 hPa | - | 2.68 m/s, 200° | - | - |
| 1788085171 | 21.11° C | 45% | 996 hPa | - | 5.36 m/s, 176° | - | - |
| 1788084606 | 21.11° C | 44% | 996.3 hPa | - | 3.13 m/s, 178° | - | - |
| 1788084106 | 21.11° C | 45% | 996.3 hPa | - | 2.68 m/s, 174° | - | - |
| 1788083536 | 21.11° C | 46% | 996.5 hPa | - | 2.24 m/s, 178° | - | - |
| 1788082996 | 21.11° C | 46% | 996.5 hPa | - | 2.24 m/s, 183° | - | - |
* Rain since midnight (hover to see other rain measurements)
** Current wind speed in m/s (hover to see current wind gust speed)